When you browse on this site, cookies collect data to enhance your experience and personalize the content and advertising you see.
Visit our Privacy Policy to learn more. By continuing to use the site, you agree to this use of cookies and data.
  • En España
  • Lista de países
  • Para 7 días
  • Temperatura del agua
  • El tiempo en el mapa
  • Informadores
  • user-avatar
    Iniciar sesión

    Tiempo cada hora Masvingo

    Hoy, 22 Octubre, Martes

    Tiempo Temperatura Precipitaciones Viento Presión Humedad
    00:00 +28°C° 0 mm 4 mps 668 mmHg 28%
    01:00 +28°C° 0 mm 4 mps 668 mmHg 29%
    02:00 +27°C° 0 mm 4 mps 668 mmHg 31%
    03:00 +27°C° 0 mm 4 mps 668 mmHg 33%
    04:00 +26°C° 0 mm 4 mps 669 mmHg 34%
    05:00 +26°C° 0 mm 4 mps 669 mmHg 35%
    06:00 +25°C° 0 mm 5 mps 670 mmHg 47%
    07:00 +25°C° 0 mm 5 mps 671 mmHg 58%
    08:00 +23°C° 0 mm 5 mps 671 mmHg 71%
    09:00 +25°C° 0 mm 5 mps 671 mmHg 69%
    10:00 +25°C° 0 mm 5 mps 671 mmHg 67%
    11:00 +26°C° 0 mm 5 mps 671 mmHg 65%
    12:00 +26°C° 0 mm 6 mps 671 mmHg 63%
    13:00 +27°C° 0 mm 6 mps 670 mmHg 62%
    14:00 +27°C° 0 mm 6 mps 670 mmHg 60%
    15:00 +26°C° 0 mm 6 mps 669 mmHg 62%
    16:00 +24°C° 0 mm 6 mps 669 mmHg 64%
    17:00 +23°C° 0 mm 6 mps 669 mmHg 67%
    18:00 +22°C° 0 mm 5 mps 669 mmHg 72%
    19:00 +21°C° 0 mm 4 mps 669 mmHg 76%
    20:00 +21°C° 0 mm 3 mps 670 mmHg 81%
    21:00 +20°C° 0 mm 3 mps 670 mmHg 83%
    22:00 +20°C° 0 mm 3 mps 670 mmHg 85%
    23:00 +19°C° 0 mm 3 mps 669 mmHg 87%

    Mañana, 23 Octubre, Miércoles

    Tiempo Temperatura Precipitaciones Viento Presión Humedad
    00:00 +19°C° 0 mm 2 mps 669 mmHg 89%
    01:00 +19°C° 0 mm 2 mps 669 mmHg 91%
    02:00 +19°C° 0 mm 1 mps 668 mmHg 93%
    03:00 +19°C° 0 mm 2 mps 668 mmHg 89%
    04:00 +19°C° 0 mm 2 mps 668 mmHg 86%
    05:00 +19°C° 0 mm 3 mps 668 mmHg 82%
    06:00 +24°C° 0 mm 3 mps 669 mmHg 66%
    07:00 +27°C° 0 mm 4 mps 670 mmHg 49%
    08:00 +30°C° 0 mm 5 mps 671 mmHg 33%
    09:00 +34°C° 0 mm 5 mps 671 mmHg 26%
    10:00 +37°C° 0 mm 5 mps 671 mmHg 19%
    11:00 +41°C° 0 mm 4 mps 671 mmHg 12%
    12:00 +41°C° 0 mm 4 mps 670 mmHg 11%
    13:00 +42°C° 0 mm 3 mps 669 mmHg 11%
    14:00 +41°C° 0 mm 2 mps 669 mmHg 11%
    15:00 +41°C° 0 mm 2 mps 668 mmHg 11%
    16:00 +40°C° 0 mm 2 mps 668 mmHg 11%
    17:00 +40°C° 0 mm 2 mps 668 mmHg 12%
    18:00 +37°C° 0 mm 2 mps 668 mmHg 15%
    19:00 +35°C° 0 mm 3 mps 668 mmHg 17%
    20:00 +33°C° 0 mm 3 mps 669 mmHg 20%
    21:00 +32°C° 0 mm 4 mps 669 mmHg 21%
    22:00 +30°C° 0 mm 4 mps 669 mmHg 23%
    23:00 +30°C° 0 mm 4 mps 670 mmHg 25%

    Pasado mañana, 24 Octubre, Jueves

    Tiempo Temperatura Precipitaciones Viento Presión Humedad
    00:00 +29°C° 0 mm 4 mps 669 mmHg 26%
    01:00 +28°C° 0 mm 4 mps 669 mmHg 27%
    02:00 +28°C° 0 mm 3 mps 669 mmHg 28%
    03:00 +27°C° 0 mm 3 mps 669 mmHg 31%
    04:00 +26°C° 0 mm 3 mps 669 mmHg 34%
    05:00 +25°C° 0 mm 2 mps 669 mmHg 37%
    06:00 +28°C° 0 mm 3 mps 670 mmHg 33%
    07:00 +32°C° 0 mm 4 mps 671 mmHg 28%
    08:00 +34°C° 0 mm 4 mps 672 mmHg 23%
    09:00 +37°C° 0 mm 3 mps 672 mmHg 20%
    10:00 +39°C° 0 mm 3 mps 672 mmHg 16%
    11:00 +42°C° 0 mm 2 mps 672 mmHg 13%
    12:00 +41°C° 0 mm 2 mps 671 mmHg 12%
    13:00 +42°C° 0 mm 3 mps 671 mmHg 12%
    14:00 +41°C° 0 mm 4 mps 670 mmHg 12%
    15:00 +41°C° 0 mm 4 mps 670 mmHg 12%
    16:00 +41°C° 0 mm 5 mps 669 mmHg 12%
    17:00 +41°C° 0 mm 5 mps 669 mmHg 12%
    18:00 +37°C° 0 mm 4 mps 669 mmHg 15%
    19:00 +35°C° 0 mm 4 mps 670 mmHg 19%
    20:00 +31°C° 0 mm 3 mps 670 mmHg 22%
    21:00 +30°C° 0 mm 3 mps 670 mmHg 26%
    22:00 +30°C° 0 mm 3 mps 670 mmHg 29%
    23:00 +29°C° 0 mm 3 mps 671 mmHg 32%

    25 Octubre, Viernes

    Tiempo Temperatura Precipitaciones Viento Presión Humedad
    00:00 +28°C° 0 mm 3 mps 670 mmHg 37%
    01:00 +27°C° 0 mm 2 mps 670 mmHg 42%
    02:00 +26°C° 0 mm 1 mps 670 mmHg 47%
    03:00 +25°C° 0 mm 1 mps 670 mmHg 51%
    04:00 +24°C° 0 mm 1 mps 670 mmHg 56%
    05:00 +23°C° 0 mm 1 mps 670 mmHg 61%
    06:00 +26°C° 0 mm 2 mps 671 mmHg 50%
    07:00 +29°C° 0 mm 3 mps 672 mmHg 40%
    08:00 +33°C° 0 mm 4 mps 673 mmHg 30%
    09:00 +36°C° 0 mm 4 mps 673 mmHg 24%
    10:00 +38°C° 0 mm 3 mps 673 mmHg 18%
    11:00 +40°C° 0 mm 3 mps 673 mmHg 13%
    12:00 +42°C° 0 mm 3 mps 672 mmHg 12%
    13:00 +43°C° 0 mm 4 mps 671 mmHg 10%
    14:00 +43°C° 0 mm 4 mps 670 mmHg 9%
    15:00 +42°C° 0 mm 4 mps 670 mmHg 10%
    16:00 +42°C° 0 mm 4 mps 670 mmHg 11%
    17:00 +41°C° 0 mm 4 mps 669 mmHg 12%
    18:00 +37°C° 0 mm 4 mps 669 mmHg 15%
    19:00 +35°C° 0 mm 3 mps 669 mmHg 18%
    20:00 +31°C° 0 mm 3 mps 669 mmHg 21%
    21:00 +32°C° 0 mm 4 mps 670 mmHg 22%
    22:00 +30°C° 0 mm 4 mps 670 mmHg 24%
    23:00 +30°C° 0 mm 4 mps 670 mmHg 25%

    26 Octubre, Sábado

    Tiempo Temperatura Precipitaciones Viento Presión Humedad
    00:00 +29°C° 0 mm 4 mps 670 mmHg 27%
    01:00 +29°C° 0 mm 4 mps 669 mmHg 29%
    02:00 +28°C° 0 mm 4 mps 669 mmHg 30%
    03:00 +27°C° 0 mm 4 mps 669 mmHg 32%
    04:00 +27°C° 0 mm 3 mps 669 mmHg 34%
    05:00 +26°C° 0 mm 3 mps 669 mmHg 36%
    06:00 +29°C° 0 mm 4 mps 670 mmHg 32%
    07:00 +32°C° 0 mm 5 mps 671 mmHg 28%
    08:00 +35°C° 0 mm 5 mps 671 mmHg 24%
    09:00 +38°C° 0 mm 4 mps 672 mmHg 20%
    10:00 +40°C° 0 mm 2 mps 672 mmHg 16%
    11:00 +43°C° 0 mm 1 mps 672 mmHg 13%
    12:00 +43°C° 0 mm 2 mps 671 mmHg 12%
    13:00 +43°C° 0 mm 3 mps 670 mmHg 12%
    14:00 +42°C° 0 mm 4 mps 669 mmHg 12%
    15:00 +42°C° 0 mm 4 mps 669 mmHg 13%
    16:00 +40°C° 0 mm 3 mps 669 mmHg 13%
    17:00 +39°C° 0 mm 3 mps 668 mmHg 13%
    18:00 +37°C° 0 mm 3 mps 668 mmHg 17%
    19:00 +34°C° 0 mm 3 mps 668 mmHg 21%
    20:00 +31°C° 0 mm 3 mps 668 mmHg 24%
    21:00 +30°C° 0 mm 4 mps 669 mmHg 26%
    22:00 +30°C° 0 mm 4 mps 669 mmHg 28%
    23:00 +30°C° 0 mm 5 mps 669 mmHg 31%

    27 Octubre, Domingo

    Tiempo Temperatura Precipitaciones Viento Presión Humedad
    00:00 +29°C° 0 mm 5 mps 669 mmHg 33%
    01:00 +28°C° 0 mm 5 mps 669 mmHg 35%
    02:00 +28°C° 0 mm 5 mps 668 mmHg 38%
    03:00 +27°C° 0 mm 4 mps 669 mmHg 40%
    04:00 +26°C° 0 mm 3 mps 669 mmHg 41%
    05:00 +26°C° 0 mm 2 mps 669 mmHg 43%
    06:00 +28°C° 0 mm 3 mps 669 mmHg 36%
    07:00 +32°C° 0 mm 4 mps 670 mmHg 30%
    08:00 +35°C° 0 mm 4 mps 671 mmHg 24%
    09:00 +37°C° 0 mm 4 mps 671 mmHg 21%
    10:00 +39°C° 0 mm 3 mps 671 mmHg 18%
    11:00 +41°C° 0 mm 2 mps 671 mmHg 15%
    12:00 +41°C° 0 mm 2 mps 670 mmHg 15%
    13:00 +40°C° 0 mm 2 mps 669 mmHg 15%
    14:00 +40°C° 0 mm 2 mps 668 mmHg 15%
    15:00 +39°C° 0 mm 2 mps 668 mmHg 17%
    16:00 +38°C° 0 mm 2 mps 667 mmHg 18%
    17:00 +37°C° 0 mm 2 mps 667 mmHg 19%
    18:00 +36°C° 0 mm 2 mps 667 mmHg 22%
    19:00 +34°C° 0 mm 2 mps 667 mmHg 24%
    20:00 +32°C° 0 mm 1 mps 667 mmHg 26%
    21:00 +31°C° 0 mm 2 mps 667 mmHg 26%
    22:00 +29°C° 0 mm 2 mps 667 mmHg 27%
    23:00 +28°C° 0 mm 3 mps 667 mmHg 28%

    28 Octubre, Lunes

    Tiempo Temperatura Precipitaciones Viento Presión Humedad
    00:00 +28°C° 0 mm 3 mps 667 mmHg 27%
    01:00 +28°C° 0 mm 3 mps 667 mmHg 26%
    02:00 +28°C° 0 mm 4 mps 666 mmHg 26%
    03:00 +28°C° 0 mm 4 mps 666 mmHg 26%
    04:00 +28°C° 0 mm 4 mps 666 mmHg 26%
    05:00 +28°C° 0 mm 4 mps 666 mmHg 26%
    06:00 +30°C° 0 mm 4 mps 667 mmHg 23%
    07:00 +34°C° 0 mm 5 mps 668 mmHg 20%
    08:00 +36°C° 0 mm 6 mps 668 mmHg 17%
    09:00 +39°C° 0 mm 5 mps 668 mmHg 15%
    10:00 +41°C° 0 mm 4 mps 668 mmHg 13%
    11:00 +43°C° 0 mm 3 mps 669 mmHg 12%
    12:00 +42°C° 0 mm 2 mps 668 mmHg 12%
    13:00 +42°C° 0 mm 1 mps 667 mmHg 11%
    14:00 +42°C° 0 mm 1 mps 666 mmHg 11%
    15:00 +41°C° 0 mm 1 mps 666 mmHg 12%
    16:00 +41°C° 0 mm 1 mps 665 mmHg 12%
    17:00 +41°C° 0 mm 1 mps 665 mmHg 12%
    18:00 +37°C° 0 mm 1 mps 665 mmHg 14%
    19:00 +35°C° 0 mm 1 mps 665 mmHg 17%
    20:00 +32°C° 0 mm 2 mps 665 mmHg 19%
    21:00 +32°C° 0 mm 2 mps 665 mmHg 20%
    22:00 +31°C° 0 mm 2 mps 665 mmHg 21%
    23:00 +31°C° 0 mm 1 mps 666 mmHg 21%
    Mostrar más